Вернуться в каталог

CENTAURI-7

АктивенСвязьSSO
NORAD 62708·PAYLOAD·🇦🇺 Australia

Запущен Jan 14, 2025 с Vandenberg Space Force Base

Loading…

Ближайшие Пролёты (ближайшие 24 часа)

TLE

СвежийSource: Space-Track

Эпоха: Sep 14, 2026, 03:58 UTC

1 62708U 25009DD  26257.16548882  .00003120  00000-0  26716-3 0  9994
2 62708  97.7031 336.3148 0001107 120.2314 239.9019 14.98290471 90784

Отслеживайте CENTAURI-7 в реальном времени с AllMySat

Download on the App Store